TimeEDT,TemperatureF,Dew PointF,Humidity,Sea Level PressureIn,VisibilityMPH,Wind Direction,Wind SpeedMPH,Gust SpeedMPH,PrecipitationIn,Events,Conditions,WindDirDegrees,DateUTC
12:53 AM,46.9,34.0,61,30.22,10.0,NNE,8.1,-,N/A,,Overcast,20,2012-10-27 04:53:00
1:19 AM,46.4,33.8,62,30.21,10.0,North,8.1,-,N/A,,Overcast,360,2012-10-27 05:19:00
1:38 AM,46.4,35.6,66,30.21,10.0,NNE,6.9,-,N/A,,Overcast,20,2012-10-27 05:38:00
1:53 AM,46.9,36.0,66,30.22,10.0,North,9.2,-,N/A,,Overcast,10,2012-10-27 05:53:00
2:53 AM,46.0,36.0,68,30.20,10.0,NNE,8.1,-,N/A,,Overcast,20,2012-10-27 06:53:00
3:53 AM,46.0,36.0,68,30.18,10.0,NNE,8.1,-,N/A,,Mostly Cloudy,20,2012-10-27 07:53:00
4:53 AM,46.0,35.1,66,30.17,10.0,North,15.0,-,N/A,,Overcast,10,2012-10-27 08:53:00
5:53 AM,44.1,36.0,73,30.18,10.0,North,11.5,18.4,N/A,,Clear,360,2012-10-27 09:53:00
6:53 AM,44.1,35.1,71,30.17,10.0,North,10.4,18.4,N/A,,Overcast,360,2012-10-27 10:53:00
7:15 AM,42.8,35.6,76,30.17,10.0,North,12.7,20.7,N/A,,Overcast,360,2012-10-27 11:15:00
7:53 AM,43.0,35.1,74,30.19,10.0,North,11.5,-,N/A,,Mostly Cloudy,360,2012-10-27 11:53:00
8:53 AM,44.1,36.0,73,30.19,10.0,NNW,8.1,-,N/A,,Partly Cloudy,340,2012-10-27 12:53:00
9:53 AM,45.0,37.0,74,30.19,10.0,North,8.1,-,N/A,,Overcast,350,2012-10-27 13:53:00
10:53 AM,46.0,37.0,71,30.20,10.0,North,8.1,-,N/A,,Overcast,350,2012-10-27 14:53:00
11:53 AM,48.0,37.9,68,30.19,10.0,NNE,16.1,23.0,N/A,,Overcast,20,2012-10-27 15:53:00
12:53 PM,50.0,37.9,63,30.19,10.0,North,15.0,21.9,N/A,,Overcast,10,2012-10-27 16:53:00
1:53 PM,53.1,36.0,52,30.17,10.0,North,15.0,21.9,N/A,,Mostly Cloudy,10,2012-10-27 17:53:00
2:53 PM,51.1,32.0,48,30.15,10.0,North,13.8,21.9,N/A,,Mostly Cloudy,10,2012-10-27 18:53:00
3:53 PM,53.1,33.1,47,30.14,10.0,NNE,17.3,23.0,N/A,,Partly Cloudy,20,2012-10-27 19:53:00
4:53 PM,51.1,33.1,50,30.16,10.0,NNE,12.7,24.2,N/A,,Partly Cloudy,20,2012-10-27 20:53:00
5:53 PM,48.2,33.8,58,30.16,10.0,NNE,15.0,20.7,N/A,,Mostly Cloudy,20,2012-10-27 21:53:00
6:53 PM,46.9,30.9,54,30.19,10.0,NNE,13.8,21.9,N/A,,Overcast,20,2012-10-27 22:53:00
7:53 PM,46.9,30.9,54,30.21,10.0,North,13.8,20.7,N/A,,Overcast,360,2012-10-27 23:53:00
8:53 PM,45.0,30.9,58,30.21,10.0,North,11.5,-,N/A,,Overcast,360,2012-10-28 00:53:00
9:53 PM,45.0,32.0,60,30.21,10.0,North,11.5,-,N/A,,Overcast,360,2012-10-28 01:53:00
10:53 PM,44.1,32.0,63,30.21,10.0,North,10.4,19.6,N/A,,Overcast,360,2012-10-28 02:53:00
11:53 PM,42.8,32.0,66,30.19,10.0,North,10.4,-,N/A,,Overcast,360,2012-10-28 03:53:00